Location: Bouillancy
(49.1149°N, 2.9308°E)
Time: 22:38:02
(UTC+00:00)

deb Kosmos-1763 - Pass Details

Date: 30 September 2020
Orbit: 463 x 475 km, 74.0° (Epoch: 25 October)

Event Time Altitude Azimuth Distance (km) Brightness Sun altitude
Rises 19:19:17 0° 339° (NNW) 2,523 8.3 -18.8°
Reaches altitude 10° 19:21:26 10° 344° (NNW) 1,638 7.2 -19.1°
Enters shadow 19:24:51 55° 52° (NE) 568 4.1 -19.6°
